Location: Newark
(16.3678°N, 77.8722°E)
Time: 03:18:30
(UTC+00:00)

S-56A Canister/Altair - Pass Details

Date: 15 December 2019
Orbit: 634 x 2498 km, 38.9° (Epoch: 22 January)

Event Time Altitude Azimuth Distance (km) Brightness Sun altitude
Rises 01:07:07 0° 225° (SW) 4,228 11.1 -1.1°
Reaches altitude 10° 01:09:35 10° 224° (SW) 3,472 10.7 -0.6°
Maximum altitude 01:18:50 77° 139° (SE) 1,888 9.8 1.4°
Drops below altitude 10° 01:32:28 10° 55° (NE) 4,945 12.1 4.4°
Sets 01:36:42 0° 54° (NE) 6,082 12.5 5.3°
